COSMOS 2251 DEB, 35647

Orbit data source: Space-Track

COSMOS 2251 DEB, 35647 is space debris in LEO originally from a launch on Wed, 16 Jun 1993 UTC launched from the Plesetsk Missile And Space Complex (PKMTR). The debris from Iridium 33, an American commercial communications satellite, has been tracked extensively since its accidental collision with the defunct Russian satellite Cosmos 2251 in 2009. This event, occurring at high speed in low Earth orbit (LEO), generated thousands of pieces of space debris, significantly increasing the risk of further collisions. The Iridium 33 debris cloud has impacted space traffic management and orbital debris mitigation strategies, making it a subject of ongoing study in space situational awareness.

Loading next visibility...
Identifier
35647, 1993-036ANN
Orbit
LEO
Country
Flag of CISCIS
Related business
Manufacturer
Unknown
Mission
Spacecraft
Bus & Motor
Unknown
Mass
Unknown
Launch date (UTC)
1993-06-16 (33 years ago)
Launch vehicle
Unknown
Launch site
Plesetsk Missile And Space Complex (PKMTR)
Object type
Payload
Rocket body
Debris
Shape & HBR
Unknown shape, 0.1 m
Radar Cross Section
Small (<0.1 m²)

Expand to show TLE details & history
Last TLE update: 1 week ago

TLE from 1 week ago
0 COSMOS 2251 DEB
1 35647U 93036ANN 26257.92956488  .00001162  00000-0  33837-3 0  9996
2 35647  74.0214 140.2415 0047146 175.3207 184.8402 14.44713218716511
Epoch: 2026-09-14T22:18Z
TLE epoch observation values (Epoch: 2026-09-14T22:18:34.405Z)
Latitude
0.00002°
Longitude
171.69534°
Altitude
779.049 km
Speed
7.447 km/s
True Right ascension
09h 20m 57s
True Declination
0° 00' 00"
Sunlit
Object was in daylight at epoch
Visualization orbit readout
Latitude
Unknown
Longitude
Unknown
Altitude
Unknown
Speed
Unknown
Apparent Right ascension
Unknown
Apparent Declination
Unknown
Sunlit
N/A
Visualization observer readout
Local Sidereal Time
00:57:00
Azimuth
Unknown
Elevation
Unknown
Doppler factor
Unknown
Orbital elements
Apogee altitude
774.146 km
Perigee altitude
707.022 km
Semi-major axis
7,118.721 km
Eccentricity
0.00471
Inclination
74.0214°
RAAN
140.2415°
Arg. of periapsis
175.3207°
True anomaly
184.79488°
Mean anomaly
184.8402°
Eccentric anomaly
184.81751°
Mean motion
3.6136 °/min
Orbital period
99.62 mins
BSTAR
0.00033837

Documentation

Showing up to 5 results
|